TechnoSat
1 42829U 17042E 24172.52534282 .00003757 00000-0 33340-3 0 9994
2 42829 97.3840 353.4075 0014084 66.9404 293.3302 14.96660970377671
AO-91
1 43017U 17073E 24172.60569812 .00006661 00000-0 41626-3 0 9997
2 43017 97.5781 47.9762 0208198 282.3896 75.4094 14.93522005356177
TianYi 2
1 43155U 18008A 24172.58206930 .00103376 00000-0 11547-2 0 9994
2 43155 97.2344 226.6600 0004774 98.3336 261.8464 15.62417208355432
Zhou Enlai
1 43156U 18008B 24172.56034063 .00287712 00000-0 15560-2 0 9995
2 43156 97.2337 228.8508 0003206 191.7752 168.3441 15.79311556355483
TianYi 6
1 43158U 18008D 24172.55876216 .00048314 00000-0 91922-3 0 9990
2 43158 97.2545 221.1659 0007364 96.5508 263.6582 15.48056705354997
S-Net D
1 43186U 18014G 24172.31186030 .00003822 00000-0 27607-3 0 9994
2 43186 97.5921 74.0984 0010522 8.7217 351.4190 15.04630702348976
S-Net B
1 43187U 18014H 24172.44714635 .00003899 00000-0 28152-3 0 9997
2 43187 97.5927 74.1811 0011125 2.9414 357.1876 15.04625832348992
S-Net A
1 43188U 18014J 24172.57902232 .00004121 00000-0 29725-3 0 9990
2 43188 97.5932 74.4237 0011017 3.1418 356.9875 15.04635593349016
S-Net C
1 43189U 18014K 24172.44927137 .00004230 00000-0 30492-3 0 9992
2 43189 97.5952 74.2444 0012426 354.6557 5.4534 15.04629569347540
Ten-Koh
1 43677U 18084G 24172.48546900 .00002600 00000-0 23657-3 0 9994
2 43677 98.0622 326.1131 0013991 10.6094 349.5419 14.96065701307213
PO-101
1 43678U 18084H 24172.55344307 .00001284 00000-0 12206-3 0 9995
2 43678 98.0718 330.6398 0009554 27.2669 332.9051 14.95322552307427
QO-100
1 43700U 18090A 24172.59535304 .00000165 00000-0 00000-0 0 9994
2 43700 0.0176 20.3843 0002035 100.2988 28.7348 1.00271332 20393
MinXSS-2
1 43758U 18099A 24172.41605356 .00007219 00000-0 45746-3 0 9998
2 43758 97.5541 234.7245 0015082 308.7276 51.2604 15.09150532303270
AO-95
1 43770U 18099N 24172.09591003 .00005824 00000-0 40416-3 0 9998
2 43770 97.5463 229.8784 0013170 359.7652 0.3566 15.05890058303003
RANGE-B
1 43772U 18099Q 24172.57160483 .00009600 00000-0 59353-3 0 9993
2 43772 97.5247 233.8292 0004151 245.9753 114.1042 15.10046109303235
RANGE-A
1 43773U 18099R 24172.56834452 .00004925 00000-0 37541-3 0 9997
2 43773 97.4998 225.6941 0013016 322.3693 37.6621 15.02419488302945
MOVE-II
1 43780U 18099Y 24172.45788910 .00015351 00000-0 80236-3 0 9994
2 43780 97.5218 235.4142 0004956 331.5035 28.5926 15.15962083303425
SNUSat 2
1 43782U 18099AA 24172.44444787 .00006115 00000-0 43410-3 0 9997
2 43782 97.5131 229.3538 0013433 291.8616 68.1182 15.05017448303064
SnugLite
1 43784U 18099AC 24172.39330763 .00005325 00000-0 36741-3 0 9992
2 43784 97.4945 228.6437 0003004 306.1954 53.8995 15.06199012303125
ITASat 1
1 43786U 18099AE 24172.11969043 .00004831 00000-0 34989-3 0 9996
2 43786 97.5089 229.3001 0016629 345.9428 14.1333 15.04323770303018
EAGLET 1
1 43790U 18099AJ 24172.56890876 .00004189 00000-0 31614-3 0 9995
2 43790 97.5299 230.2202 0012607 321.1026 38.9292 15.02894791302787
ESEO
1 43792U 18099AL 24172.60809386 .00001791 00000-0 14973-3 0 9993
2 43792 97.5147 227.1071 0011917 314.4195 45.6052 14.99677389302714
CSIM
1 43793U 18099AM 24172.18238043 .00013451 00000-0 70681-3 0 9997
2 43793 97.5299 236.8671 0010807 300.8327 59.1842 15.15764737303237
JO-97
1 43803U 18099AX 24172.41937806 .00006537 00000-0 43472-3 0 9993
2 43803 97.5205 231.0167 0008046 292.8590 67.1788 15.07471899303184
Suomi 100
1 43804U 18099AY 24172.60506306 .00005533 00000-0 37574-3 0 9993
2 43804 97.5271 230.9974 0014131 290.4814 69.4896 15.06705649303195
ISAT
1 43879U 18111D 24172.58938889 .00009000 00000-0 54730-3 0 9998
2 43879 97.6203 78.2754 0012571 358.3490 1.7696 15.10614946299939
UWE-4
1 43880U 18111E 24172.24622590 .00007349 00000-0 45920-3 0 9997
2 43880 97.6119 77.9455 0016535 5.8615 354.2804 15.09645280299893
Sparrow
1 43881U 18111F 24172.49312882 .00010503 00000-0 62943-3 0 9995
2 43881 97.6284 80.0871 0011285 38.9400 321.2640 15.11115843299982
AISat 1
1 44104U 19018AC 24172.54144746 .00630547 21487-3 64652-3 0 9999
2 44104 97.3500 284.6789 0012553 280.3229 79.6640 16.10634345293420
Prox-1
1 44339U 19036A 24172.44248429 .00006573 00000-0 11094-2 0 9993
2 44339 23.9982 204.4893 0008802 41.5250 318.5912 14.66934050265722
SONATE
1 44400U 19038Q 24172.52944796 .00017279 00000-0 51918-3 0 9998
2 44400 97.7112 166.7730 0018356 95.3614 264.9722 15.34321087274595
Taurus 1
1 44530U 19059C 24172.60636673 .00005095 00000-0 11815-2 0 9990
2 44530 98.5764 292.8629 0011530 50.9732 309.2489 14.55437685252261
Duchifat 3
1 44854U 19089C 24172.28561826 .00011841 00000-0 59749-3 0 9998
2 44854 36.9584 30.2041 0004085 109.5311 250.5878 15.16552821248745
TO-108
1 44881U 19093C 24172.54757715 .00001107 00000-0 14002-3 0 9993
2 44881 97.8284 249.2650 0013270 315.7962 44.2191 14.83768530243543
FloripaSat 1
1 44885U 19093G 24172.57304368 .00004876 00000-0 50687-3 0 9997
2 44885 97.8414 255.1203 0011170 306.0850 53.9333 14.90313606243877
RS-44
1 44909U 19096E 24172.31762621 .00000008 00000-0 -16977-4 0 9998
2 44909 82.5212 102.6974 0218490 44.0948 317.7345 12.79730753209375
BY70-2
1 45857U 20042B 24172.59730986 .00117485 00000-0 36782-2 0 9994
2 45857 97.9075 266.3623 0012123 215.5294 144.5140 15.32560504215078
UPMSat 2
1 46276U 20061E 24172.42507944 .00012608 00000-0 38392-3 0 9990
2 46276 97.2978 238.6342 0002807 115.5679 244.5854 15.34122822210676
AmicalSat
1 46287U 20061R 24172.42949222 .00024499 00000-0 66492-3 0 9994
2 46287 97.3495 239.6911 0002865 177.2525 182.8736 15.37592164210064
SALSAT
1 46495U 20068K 24172.44810114 .00005600 00000-0 31871-3 0 9997
2 46495 97.8160 131.8214 0012179 307.2632 52.7487 15.13215070204806
UVSQ-SAT
1 47438U 21006AB 24172.39842859 .00045186 00000-0 84700-3 0 9995
2 47438 97.3260 232.9267 0007730 188.2454 171.8671 15.48497678189238
YUSAT 1
1 47439U 21006AC 24172.44015354 .00173855 00000-0 12711-2 0 9991
2 47439 97.3190 237.9115 0008393 195.8578 164.2424 15.72660290189562
SOMP 2b
1 47445U 21006AJ 24172.60010697 .00035992 00000-0 75294-3 0 9996
2 47445 97.3227 231.4109 0007331 193.9866 166.1181 15.45357096189188
IDEASSat
1 47458U 21006AX 24172.12800973 .00031661 00000-0 72960-3 0 9997
2 47458 97.3336 231.4558 0007120 198.1313 161.9681 15.42511647189045
CubeSX-Sirius-HSE
1 47951U 21022V 24172.58456048 .00016218 00000-0 63386-3 0 9996
2 47951 97.4611 70.9404 0016461 122.1725 238.1112 15.25819457179099
CubeSX-HSE
1 47952U 21022W 24172.60329064 .00016550 00000-0 64453-3 0 9992
2 47952 97.4610 71.0511 0016366 121.3912 238.8929 15.25935113179106
KSU-Cubesat
1 47954U 21022Y 24172.45406824 .00019820 00000-0 70478-3 0 9994
2 47954 97.4619 72.2362 0015549 117.3115 242.9710 15.28911762178881
GRBAlpha
1 47959U 21022AD 24172.56739735 .00015549 00000-0 60409-3 0 9998
2 47959 97.4613 71.1660 0016240 121.4528 238.8300 15.26031317177922
Orbicraft-Zorkiy
1 47960U 21022AE 24172.62224006 .00018353 00000-0 67151-3 0 9994
2 47960 97.4656 72.5123 0015524 118.6803 241.5999 15.27992084178685
